Weather History for MMTC - October, 2012

Change the Weather History Date:

Friday, October 26, 2012

  Actual Average Record
Temperature  
Mean Temperature 78 °F -  
Max Temperature 91 °F 76 °F 91 °F (2012)
Min Temperature 66 °F 52 °F 50 °F (2003)
Cooling Degree Days 14    
Growing Degree Days 28 (Base 50)    
Moisture  
Dew Point 56 °F    
Average Humidity 46    
Maximum Humidity 68    
Minimum Humidity 29    
Precipitation  
Precipitation 0.02 in - - ()
Sea Level Pressure  
Sea Level Pressure 29.85 in    
Wind  
Wind Speed 3 mph ()    
Max Wind Speed 16 mph    
Max Gust Speed -    
Visibility 9.3 miles    
Events      
Averages and records for this station are not official NWS values.
T = Trace of Precipitation, MM = Missing Value Source: Averaged Metar Reports

Daily Weather History Graph

Daily Weather History Graph

Search for Another Location

Airport or City:

Trip Planner

Search our weather history database for the weather conditions in past years. The results will help you decide how hot, cold, wet, or windy it might be!

Date:

Astronomy

Oct. 26, 2012 Rise Set
Actual Time 7:58 AM CDT 7:16 PM CDT
Civil Twilight 7:35 AM CDT 7:39 PM CDT
Nautical Twilight 7:08 AM CDT 8:06 PM CDT
Astronomical Twilight 6:41 AM CDT 8:33 PM CDT
Moon 5:21 PM CDT (10/26) 5:11 AM CDT (10/26)
Length of Visible Light 12h 04m
Length of Day
11h 17m
Waxing Gibbous, 91% of the Moon is Illuminated
Oct 26
Waxing Gibbous
Oct 29
Full
Nov 6
Last Quarter
Nov 13
New
Nov 20
First Quarter

Hourly Weather History & Observations

Time (CDT) Temp. Heat Index Dew Point Humidity Pressure Visibility Wind Dir Wind Speed Gust Speed Precip Events Conditions
12:56 AM 73 °F - 60 °F 54% 29.65 in 6 mi East 2.2 mph - -  
3:52 AM 71 °F - 56 °F 50% 29.69 in 6 mi NW 4.5 mph - -  
6:40 AM 68.0 °F - 53.6 °F 60% 29.69 in 10.0 mi Calm Calm - N/A   Clear
6:52 AM 68 °F - 58 °F 62% 29.75 in 6 mi NNW 2.2 mph - -  
7:40 AM 66.2 °F - 53.6 °F 64% 30.00 in 10.0 mi Calm Calm - N/A   Clear
8:40 AM 66.2 °F - 55.4 °F 68% 30.02 in 8.0 mi Calm Calm - N/A   Partly Cloudy
9:44 AM 71.6 °F - 55.4 °F 57% 29.81 in 6.0 mi Calm Calm - N/A   Partly Cloudy
9:50 AM 72 °F - 61 °F 60% 29.87 in 19 mi NW 2.2 mph - -  
10:40 AM 77.0 °F - 51.8 °F 41% 30.06 in 6.0 mi Calm Calm - N/A   Clear
11:40 AM 77.0 °F - 55.4 °F 47% 30.06 in 7.0 mi NNE 6.9 mph - N/A   Clear
12:40 PM 80.6 °F 80.8 °F 57.2 °F 45% 29.79 in 7.0 mi Calm Calm - N/A   Clear
1:40 PM 84.2 °F 82.8 °F 53.6 °F 35% 30.01 in 8.0 mi East 4.6 mph - N/A   Clear
2:48 PM 86.0 °F 84.9 °F 57.2 °F 37% 29.96 in 8.0 mi ESE 5.8 mph - N/A   Clear
3:46 PM 90 °F - 62 °F 29% 29.70 in 19 mi NE 4.5 mph - -   Scattered Clouds
3:56 PM 87.8 °F 86.5 °F 57.2 °F 35% 29.65 in 10.0 mi NNE 4.6 mph - N/A   Clear
4:46 PM 87.8 °F 86.1 °F 55.4 °F 33% 29.92 in 10.0 mi North 2.3 mph - N/A   Clear
5:40 PM 87.8 °F 86.1 °F 55.4 °F 33% 29.92 in 10.0 mi ENE 6.9 mph - N/A   Clear
6:46 PM 85 °F - 60 °F 32% 29.65 in 19 mi ENE 4.5 mph - -   Scattered Clouds
6:47 PM 86.0 °F 84.5 °F 55.4 °F 35% 29.65 in 10.0 mi NE 16.1 mph - N/A   Clear
7:50 PM 82.4 °F 81.4 °F 53.6 °F 37% 29.94 in 10.0 mi NE 9.2 mph - N/A   Scattered Clouds
8:49 PM 80.6 °F 80.3 °F 53.6 °F 39% 29.95 in 10.0 mi NE 10.4 mph - N/A   Clear
9:46 PM 77.0 °F - 55.4 °F 47% 29.75 in 8.0 mi NE 11.5 mph - N/A   Scattered Clouds
9:48 PM 77 °F - 62 °F 50% 29.70 in 6 mi NE 2.2 mph - -   Partly Cloudy
10:44 PM 73.4 °F - 55.4 °F 53% 30.01 in 7.0 mi ENE 11.5 mph - N/A   Mostly Cloudy
11:46 PM 71.6 °F - 53.6 °F 53% 30.03 in 7.0 mi NNE 11.5 mph - N/A   Mostly Cloudy